Weather Roundup
Issued by NWS Corpus Christi, TX

Home | Current Version | Previous Version | Text Only | Print | Product List | Glossary On
Versions: 1 2 3 4 5 6 7 8 9 10 11 12 13 14 15 16 17 18 19 20 21 22 23 24 25 26 27 28 29 30 31 32 33 34 35 36 37 38 39 40 41 42 43 44 45 46 47 48 49 50
000
ASUS44 KCRP 030310
HRRCRP

SOUTH TEXAS REGIONAL WEATHER ROUNDUP
NATIONAL WEATHER SERVICE CORPUS CHRISTI TX
1000 PM CDT WED SEP 02 2015


TXZ229>244-030400-
...CORPUS CHRISTI AREA OBSERVATIONS...

CITY           SKY/WX    TMP DP  RH WIND       PRES   REMARKS
CORPUS CHRISTI PTCLDY    82  74  76 E8        29.92R
NAS CORPUS CHR PTCLDY    82  75  79 E10       29.92R
ROCKPORT       CLEAR     82  75  79 SE10      29.91S
KINGSVILLE NAS PTCLDY    79  77  94 E6        29.92R
ALICE          CLEAR     79  74  84 E6        29.92R
FALFURRIAS     CLEAR     79  74  86 CALM      29.92R
$$

...VICTORIA AREA OBSERVATIONS...

CITY           SKY/WX    TMP DP  RH WIND       PRES   REMARKS
VICTORIA       CLEAR     78  76  93 CALM      29.94R
BEEVILLE       FAIR      78  76  92 E5        29.94R
PLEASANTON     CLEAR     82  68  62 E7        29.94R
SAN ANTONIO    PTCLDY    84  66  54 E9        29.95R
$$

...LAREDO AREA OBSERVATIONS...

CITY           SKY/WX    TMP DP  RH WIND       PRES   REMARKS
LAREDO         PTCLDY    87  72  61 E16       29.92R HX  93
COTULLA        CLEAR     87  70  56 SE15      29.91R HX  92
DEL RIO        CLEAR     85  62  46 E7        29.90R
MCALLEN        CLEAR     85  75  72 E10       29.90R HX  93
HEBBRONVILLE   NOT AVBL
$$

...OTHER TEXAS OBSERVATIONS...

CITY           SKY/WX    TMP DP  RH WIND       PRES   REMARKS
BROWNSVILLE    CLEAR     79  76  90 SE6       29.91R
HOUSTON        PTCLDY    76  74  93 NE3       29.96R
COL. STATION   CLEAR     79  70  74 SE9       29.96S
AUSTIN         PTCLDY    79  68  69 SE7       29.96R
WACO           PTCLDY    84  66  54 S8        29.96R
FORT WORTH     PTCLDY    86  64  47 SE8       29.96R
WICHITA FALLS  CLEAR     81  61  50 SE13      29.94R
LUBBOCK        MOCLDY    77  56  48 SE7       30.02R
EL PASO        CLOUDY    88  47  24 W17G25    30.01R
$$

...MARINE OBSERVATIONS...

STATION/POSITION TIME  SKY/WX   TEMP    WIND        PRES    VSBY  WAVE   SWELL
                                AIR SEA DIR/SP/G                  HT/PER HT/PER
                 (UTC)          (F)     (DEG/KT/KT) (MB)    (MI)  (FT/S) (FT/S)
PORT ARANSAS     0300            83 85  100/ 12/ 13 1013.9R
BUOY 90 E PORT A 0250            82 85  140/ 12/ 14 1013.4R         3/ 5   2/ 6
BUOY 45 SE BAFFI 0250            83 85  110/ 12/ 14 1012.5R         3/ 6   2/ 6
BUOY 200 E PT IS 0250            82 85   90/ 12/ 14 1014.0R         2/ 5
BUOY 15 E GALVES 0250            82 85  150/  8/ 10 1014.0R         3/ 5   2/ 5
$$


USA.gov is the U.S. government's official web portal to all federal, state and local government web resources and services.